Miscellaneous Local Product
Issued by NWS Hastings, NE

Home | Current Version | Previous Version | Text Only | Print | Product List | Glossary Off
Versions: 1 2 3 4 5 6 7 8 9 10 11 12 13 14 15 16 17 18 19 20 21 22 23 24 25 26 27 28 29 30 31 32 33 34 35 36 37 38 39 40 41 42 43 44 45 46 47 48 49 50

382
AXUS43 KGID 120602
MISGRI

GID CWA HOURLY WEATHER ROUNDUP
NATIONAL WEATHER SERVICE HASTINGS NE
1200 AM CST TUE DEC 12 2017

NOTE: "FAIR" INDICATES FEW OR NO CLOUDS BELOW 12,000 FEET WITH NO
SIGNIFICANT WEATHER AND/OR OBSTRUCTIONS TO VISIBILITY.

...SOUTH CENTRAL NEBRASKA...

CITY           SKY/WX    TMP DP  RH WIND       PRES   REMARKS
GRAND ISLAND   CLEAR     30  26  85 N10       30.37S WCI  21
KEARNEY        CLOUDY    35  29  78 N8        30.38R WCI  29
HASTINGS       CLEAR     30  25  81 NW8       30.37S WCI  22
ORD            MOCLDY    31  28  89 NW9       30.36R WCI  23
YORK           CLEAR     27  25  93 N13       30.36R WCI  16
AURORA         CLEAR     28  22  77 N9        30.36S WCI  20
LEXINGTON      MOCLDY    37  27  67 N9        30.38F WCI  30
HOLDREGE       CLOUDY    37  31  77 N12       30.37S WCI  30
HEBRON         CLEAR     33  24  71 NW6       30.37S WCI  27

...NEBRASKA PANHANDLE...

CITY           SKY/WX    TMP DP  RH WIND       PRES   REMARKS
CHADRON        CLOUDY    17  13  84 W7        30.40F WCI   8
ALLIANCE       CLOUDY    13   8  81 W8        30.39F WCI   2
SCOTTSBLUFF    CLOUDY    24  14  65 N8        30.41S WCI  15
SIDNEY         CLOUDY    23  12  62 W10       30.41F WCI  12

...WESTERN AND NORTH CENTRAL NEBRASKA...

CITY           SKY/WX    TMP DP  RH WIND       PRES   REMARKS
VALENTINE      CLOUDY    38  27  64 NW9       30.37S WCI  31
AINSWORTH      CLOUDY    36  30  80 N17       30.36S WCI  25
ONEILL         CLEAR     21  21  99 CALM      30.37F
BROKEN BOW     CLOUDY    38  28  67 N13G21    30.36F WCI  30
IMPERIAL       CLOUDY    26  16  65 W6        30.43R WCI  19
NORTH PLATTE   CLEAR     21  18  88 NW8       30.41R WCI  11
MCCOOK         CLEAR     27  21  78 W9        30.43R WCI  18

...EASTERN NEBRASKA...

CITY           SKY/WX    TMP DP  RH WIND       PRES   REMARKS
NORFOLK        CLEAR     22  19  89 N10       30.36R WCI  11
SO SIOUX CITY  CLEAR     19  13  77 N14       30.37R WCI   6
TEKAMAH        CLEAR     21  14  74 NW8       30.36R WCI  11
COLUMBUS       CLEAR     26  22  84 NW7       30.38R WCI  18
ALBION         CLEAR     27  24  86 N6        30.37S WCI  21
OMAHA EPPLEY   CLEAR     26  16  65 N18       30.34R WCI  13
OFFUTT AFB     CLEAR     27  15  60 N10G24    30.33R WCI  17
MILLARD        CLEAR     28  19  69 NW9       30.35R WCI  19
LINCOLN        CLEAR     30  23  75 N20G28    30.36S WCI  17
NEBRASKA CITY  CLEAR     28  20  72 N16       30.32R WCI  16
BEATRICE       CLEAR     32  27  82 N12       30.35R WCI  23
FALLS CITY     CLEAR     30  18  60 NW12      30.32  WCI  20

...NORTHERN KANSAS...

CITY           SKY/WX    TMP DP  RH WIND       PRES   REMARKS
GOODLAND       CLOUDY    26  16  65 N10       30.42S WCI  16
HILL CITY      CLEAR     28  22  78 NW7       30.43  WCI  21
NORTON         CLEAR     28  21  74 W9        30.40R WCI  20
PHILLIPSBURG   CLEAR     28  25  86 W9        30.41S WCI  20
SMITH CENTER   CLOUDY    37  28  70 N13       30.39S WCI  29
HAYS           CLEAR     28  23  81 W5        30.41R WCI  23
RUSSELL        CLEAR     32  27  81 NW5       30.39R WCI  27
CONCORDIA      CLEAR     37  24  59 N17G26    30.38R WCI  27
SALINA         PTCLDY    42  28  57 N18       30.37R
TOPEKA         CLEAR     36  26  67 NW15G26   30.31R WCI  27



USA.gov is the U.S. government's official web portal to all federal, state and local government web resources and services.